Location: Concord
(42.4605°N, 71.3489°W)
Time: 20:04:40
(UTC-04:00)

ISS - Pass Details

Date: 13 March 2026
Orbit: 415 x 424 km, 51.6° (Epoch: 14 April)

Event Time Altitude Azimuth Distance (km) Brightness Sun altitude
Rises 19:22:28 0° 225° (SW) 2,373 0.8 -6.9°
Maximum altitude 19:27:55 59° 142° (SE) 495 -3.6 -7.9°
Drops below altitude 10° 19:31:17 10° 62° (ENE) 1,515 -1.4 -8.5°
Enters shadow 19:31:38 - 61° (ENE) 1,659 -1.2 -8.6°
